GW5111 Weather Reports


time (UTC)temp
F
wind
direction
speed
knots
gust
knots
rain 1hr
in
rain 24hr
in
rain mn
in
humidity
%
barometer
mb
20260510201925 64 10 3.5 5.2 0.00 0.00 0.00 63 1017.6
20260510201422 64 288 3.5 7.8 0.00 0.00 0.00 64 1017.6
20260510200918 64 345 4.3 6.1 0.00 0.00 0.00 63 1017.8
20260510200418 64 350 7.0 7.8 0.00 0.00 0.00 63 1017.8
20260510195912 65 342 4.3 7.8 0.00 0.00 0.00 61 1017.7
20260510195409 66 15 6.1 7.8 0.00 0.00 0.00 61 1017.8
20260510194904 66 334 7.8 9.6 0.00 0.00 0.00 58 1017.9
20260510194401 65 284 8.7 16.5 0.00 0.00 0.00 54 1017.9
20260510193856 65 354 5.2 7.0 0.00 0.00 0.00 55 1017.8
20260510193351 66 280 7.8 12.2 0.00 0.00 0.00 55 1017.6
20260510192847 67 311 4.3 6.1 0.00 0.00 0.00 55 1017.8
20260510192343 67 305 6.1 7.0 0.00 0.00 0.00 54 1017.7
20260510191839 67 299 4.3 7.0 0.00 0.00 0.00 53 1017.5
20260510191335 67 305 6.1 8.7 0.00 0.00 0.00 53 1017.6
20260510190833 67 292 5.2 7.0 0.00 0.00 0.00 55 1017.6
20260510190330 67 281 8.7 9.6 0.00 0.00 0.00 52 1017.6
20260510185820 68 251 0.9 7.0 0.00 0.00 0.00 54 1017.4
20260510185318 68 314 4.3 6.1 0.00 0.00 0.00 53 1017.5
20260510184815 71 306 8.7 9.6 0.00 0.00 0.00 51 1017.5
20260510184312 68 333 7.0 8.7 0.00 0.00 0.00 53 1017.5
20260510183807 69 286 2.6 8.7 0.00 0.00 0.00 51 1017.4
20260510183303 67 307 9.6 15.6 0.00 0.00 0.00 52 1017.7
20260510182758 68 301 7.0 13.9 0.00 0.00 0.00 51 1017.5
20260510182255 68 295 9.6 11.3 0.00 0.00 0.00 50 1017.5
20260510181752 68 289 6.1 7.8 0.00 0.00 0.00 55 1017.5
20260510181248 68 313 4.3 11.3 0.00 0.00 0.00 52 1017.7
20260510180744 69 347 6.1 11.3 0.00 0.00 0.00 52 1017.6
20260510180242 69 325 4.3 7.8 0.00 0.00 0.00 55 1017.8
20260510175738 68 310 4.3 11.3 0.00 0.00 0.00 52 1017.7
20260510175234 67 343 7.8 9.6 0.00 0.00 0.00 55 1017.8
20260510174731 67 293 8.7 15.6 0.00 0.00 0.00 55 1017.9
20260510174228 67 311 8.7 13.0 0.00 0.00 0.00 57 1017.8
20260510173725 67 327 8.7 12.2 0.00 0.00 0.00 57 1017.9
20260510173220 67 302 7.8 11.3 0.00 0.00 0.00 59 1017.9
20260510172715 67 288 5.2 12.2 0.00 0.00 0.00 59 1018.1
20260510172212 67 323 5.2 8.7 0.00 0.00 0.00 58 1017.9
20260510171710 67 284 5.2 7.8 0.00 0.00 0.00 61 1017.9
20260510171207 66 332 5.2 12.2 0.00 0.00 0.00 60 1018.0
20260510170703 66 308 11.3 14.8 0.00 0.00 0.00 57 1018.1
20260510170159 66 314 7.8 13.0 0.00 0.00 0.00 59 1018.0
20260510165655 66 287 5.2 8.7 0.00 0.00 0.00 62 1018.1
20260510165151 66 332 8.7 9.6 0.00 0.00 0.00 58 1018.4
20260510164649 66 327 7.0 13.9 0.00 0.00 0.00 59 1018.4
20260510164146 66 295 5.2 7.8 0.00 0.00 0.00 61 1018.4
20260510163641 66 264 5.2 12.2 0.00 0.00 0.00 64 1018.4
20260510163137 66 341 3.5 11.3 0.00 0.00 0.00 62 1018.0
20260510162631 65 313 8.7 13.0 0.00 0.00 0.00 63 1018.3
20260510162128 64 284 15.6 19.1 0.00 0.00 0.00 62 1018.1
20260510161624 64 283 10.4 16.5 0.00 0.00 0.00 64 1018.4
20260510161121 65 274 7.8 13.9 0.00 0.00 0.00 65 1018.3
20260510160618 64 278 4.3 9.6 0.00 0.00 0.00 66 1018.5
20260510160118 65 267 10.4 13.9 0.00 0.00 0.00 63 1018.3
20260510155615 65 256 6.1 15.6 0.00 0.00 0.00 66 1018.3
20260510155111 65 334 9.6 14.8 0.00 0.00 0.00 64 1018.3
20260510154606 65 308 7.8 12.2 0.00 0.00 0.00 63 1018.1
20260510154102 65 245 5.2 13.9 0.00 0.00 0.00 66 1018.0
20260510153557 65 260 2.6 11.3 0.00 0.00 0.00 66 1018.1
20260510153054 64 323 4.3 12.2 0.00 0.00 0.00 68 1017.9
20260510152551 64 331 7.8 12.2 0.00 0.00 0.00 65 1018.0
20260510152047 64 314 9.6 13.0 0.00 0.00 0.00 68 1018.1
20260510151543 64 277 3.5 9.6 0.00 0.00 0.00 65 1018.0
20260510151042 64 344 7.0 7.8 0.00 0.00 0.00 66 1018.0
20260510150536 64 281 5.2 8.7 0.00 0.00 0.00 66 1018.0
20260510150033 63 295 7.0 11.3 0.00 0.00 0.00 65 1018.3
20260510145530 63 304 6.1 9.6 0.00 0.00 0.00 66 1017.9
20260510145026 64 298 4.3 7.0 0.00 0.00 0.00 66 1017.9
20260510144522 63 345 8.7 9.6 0.00 0.00 0.00 65 1017.9
20260510144019 63 322 4.3 12.2 0.00 0.00 0.00 67 1017.9
20260510143514 64 271 5.2 13.0 0.00 0.00 0.00 65 1018.0
20260510143011 63 298 5.2 8.7 0.00 0.00 0.00 67 1017.8
20260510142507 63 294 7.0 13.0 0.00 0.00 0.00 65 1017.8
20260510142004 64 336 6.1 9.6 0.00 0.00 0.00 66 1017.6
20260510141500 63 352 6.1 8.7 0.00 0.00 0.00 65 1017.7
20260510140958 62 323 4.3 7.8 0.00 0.00 0.00 67 1017.8
20260510140454 62 285 4.3 8.7 0.00 0.00 0.00 68 1017.9
20260510135953 62 311 9.6 13.0 0.00 0.00 0.00 66 1017.7
20260510135449 61 333 7.0 12.2 0.00 0.00 0.00 69 1017.8
20260510134946 61 319 10.4 14.8 0.00 0.00 0.00 69 1017.5
20260510134443 61 315 7.8 16.5 0.00 0.00 0.00 69 1017.6
20260510133940 60 305 5.2 8.7 0.00 0.00 0.00 68 1017.7
20260510133436 60 293 11.3 14.8 0.00 0.00 0.00 69 1017.7
20260510132931 60 324 4.3 13.0 0.00 0.00 0.00 71 1017.6
20260510132430 60 242 6.1 11.3 0.00 0.00 0.00 70 1017.7
20260510131926 60 322 10.4 12.2 0.00 0.00 0.00 69 1017.8
20260510131424 60 265 5.2 8.7 0.00 0.00 0.00 70 1017.7
20260510130920 60 307 3.5 13.9 0.00 0.00 0.00 71 1017.9
20260510130417 60 281 4.3 12.2 0.00 0.00 0.00 72 1017.6
20260510125914 59 307 6.1 12.2 0.00 0.00 0.00 72 1017.9
20260510125405 59 298 6.1 13.9 0.00 0.00 0.00 73 1017.5
20260510124902 59 282 5.2 12.2 0.00 0.00 0.00 73 1017.6
20260510124358 59 327 7.0 9.6 0.00 0.00 0.00 74 1017.6
20260510123854 58 314 7.8 8.7 0.00 0.00 0.00 74 1017.4
20260510123350 58 290 5.2 9.6 0.00 0.00 0.00 74 1017.4
20260510122847 58 308 5.2 8.7 0.00 0.00 0.00 75 1017.5
20260510122342 58 289 4.3 8.7 0.00 0.00 0.00 76 1017.5
20260510121839 58 311 5.2 7.0 0.00 0.00 0.00 76 1017.4
20260510121337 58 300 5.2 7.8 0.00 0.00 0.00 77 1017.3
20260510120833 57 307 2.6 3.5 0.00 0.00 0.00 77 1017.3
20260510120331 57 328 6.1 7.0 0.00 0.00 0.00 78 1017.2
20260510115826 56 210 2.6 2.6 0.00 0.00 0.00 78 1017.0
20260510115324 56 304 1.7 6.1 0.00 0.00 0.00 79 1017.0
20260510114819 56 298 2.6 2.6 0.00 0.00 0.00 81 1017.2
20260510114317 55 309 1.7 1.7 0.00 0.00 0.00 81 1017.3
20260510113817 55 277 0.0 2.6 0.00 0.00 0.00 83 1016.9
20260510113314 55 264 0.9 2.6 0.00 0.00 0.00 82 1016.9
20260510112811 54 263 0.0 2.6 0.00 0.00 0.00 84 1016.9
20260510112308 54 3 0.9 2.6 0.00 0.00 0.00 84 1016.9
20260510111804 53 252 0.9 2.6 0.00 0.00 0.00 85 1017.0
20260510111301 53 306 1.7 2.6 0.00 0.00 0.00 86 1016.8
20260510110800 53 298 0.9 2.6 0.00 0.00 0.00 86 1016.7
20260510110259 52 291 0.9 2.6 0.00 0.00 0.00 87 1016.7
20260510105758 52 306 2.6 3.5 0.00 0.00 0.00 87 1016.5
20260510105253 52 316 2.6 5.2 0.00 0.00 0.00 88 1016.5
20260510104750 51 316 3.5 5.2 0.00 0.00 0.00 88 1016.5
20260510104248 51 292 4.3 5.2 0.00 0.00 0.00 89 1016.4
20260510103743 51 307 1.7 3.5 0.00 0.00 0.00 90 1016.4
20260510103240 50 301 2.6 3.5 0.00 0.00 0.00 90 1016.3
20260510102735 50 317 1.7 2.6 0.00 0.00 0.00 91 1016.2
20260510102230 50 292 2.6 3.5 0.00 0.00 0.00 92 1016.1
20260510101728 50 302 0.9 2.6 0.00 0.00 0.00 91 1015.9
20260510101227 50 322 1.7 2.6 0.00 0.00 0.00 91 1015.9
20260510100722 50 317 1.7 3.5 0.00 0.00 0.00 91 1015.7
20260510100221 50 303 1.7 2.6 0.00 0.00 0.00 91 1015.7
20260510095720 50 309 1.7 2.6 0.00 0.00 0.00 91 1015.8
20260510095216 50 309 3.5 5.2 0.00 0.00 0.00 91 1015.7
20260510094715 50 327 3.5 3.5 0.00 0.00 0.00 91 1015.8
20260510094211 50 298 3.5 5.2 0.00 0.00 0.00 91 1015.8
20260510093707 50 274 2.6 5.2 0.00 0.00 0.00 91 1015.9
20260510093204 50 298 2.6 3.5 0.00 0.00 0.00 92 1015.7
20260510092700 50 285 1.7 5.2 0.00 0.00 0.00 92 1015.7
20260510092156 50 292 1.7 1.7 0.00 0.00 0.00 92 1015.5
20260510091652 50 280 0.9 1.7 0.00 0.00 0.00 91 1015.6
20260510091148 50 289 0.9 1.7 0.00 0.00 0.00 91 1015.4
20260510090645 50 258 1.7 2.6 0.00 0.00 0.00 91 1015.4
20260510090142 50 291 1.7 2.6 0.00 0.00 0.00 91 1015.3
20260510085637 50 282 0.9 2.6 0.00 0.00 0.00 91 1015.3
20260510085132 51 289 1.7 2.6 0.00 0.00 0.00 90 1015.3
20260510084629 51 322 2.6 3.5 0.00 0.00 0.00 90 1015.2
20260510084126 51 311 1.7 5.2 0.00 0.00 0.00 89 1015.2
20260510083622 51 314 2.6 3.5 0.00 0.00 0.00 90 1015.2
20260510083119 51 308 3.5 5.2 0.00 0.00 0.00 90 1015.0
20260510082615 51 321 3.5 5.2 0.00 0.00 0.00 90 1015.1
20260510082111 51 304 1.7 3.5 0.00 0.00 0.00 90 1015.0
20260510081606 51 306 3.5 3.5 0.00 0.00 0.00 91 1015.2
20260510081102 51 288 3.5 5.2 0.00 0.00 0.00 90 1015.0
20260510080601 51 319 3.5 7.8 0.00 0.00 0.00 90 1014.8
20260510080058 51 320 3.5 7.0 0.00 0.00 0.00 90 1014.8
20260510075555 51 338 3.5 6.1 0.00 0.00 0.00 90 1014.7
20260510075052 51 297 2.6 5.2 0.00 0.00 0.00 90 1014.6
20260510074550 51 319 4.3 7.0 0.00 0.00 0.00 90 1014.7
20260510074045 51 301 4.3 5.2 0.00 0.00 0.00 90 1014.7
20260510073541 51 306 4.3 6.1 0.00 0.00 0.00 90 1014.5
20260510073039 52 303 1.7 5.2 0.00 0.00 0.00 90 1014.7
20260510072535 52 310 4.3 6.1 0.00 0.00 0.00 90 1014.6
20260510072031 52 312 3.5 7.0 0.00 0.00 0.00 90 1014.6
20260510071527 52 309 2.6 8.7 0.00 0.00 0.00 90 1014.7
20260510071026 52 305 3.5 6.1 0.00 0.00 0.00 90 1014.7
20260510070522 52 304 6.1 7.0 0.00 0.00 0.00 90 1014.7
20260510070019 52 295 3.5 6.1 0.00 0.00 0.00 90 1015.1
20260510065515 52 332 4.3 7.0 0.00 0.00 0.00 90 1014.7
20260510065011 52 337 7.0 7.8 0.00 0.00 0.00 90 1014.6
20260510064508 52 338 3.5 7.0 0.00 0.00 0.00 90 1014.7
20260510064005 52 335 6.1 8.7 0.00 0.00 0.00 90 1014.5
20260510063501 52 303 4.3 7.0 0.00 0.00 0.00 90 1014.8
20260510062959 52 317 2.6 7.0 0.00 0.00 0.00 90 1014.7
20260510062454 52 311 4.3 7.0 0.00 0.00 0.00 90 1014.7
20260510061949 52 272 5.2 7.8 0.00 0.00 0.00 90 1014.8
20260510061447 52 289 3.5 6.1 0.00 0.00 0.00 89 1014.8
20260510060943 53 289 3.5 7.8 0.00 0.00 0.00 89 1014.6
20260510060440 52 306 5.2 7.0 0.00 0.00 0.00 90 1014.7
20260510055936 52 323 4.3 6.1 0.00 0.00 0.00 90 1014.8
20260510055432 52 306 4.3 6.1 0.00 0.00 0.00 90 1014.7
20260510054931 52 300 3.5 8.7 0.00 0.00 0.00 90 1014.8
20260510054431 53 297 2.6 7.0 0.00 0.00 0.00 89 1014.8
20260510053926 52 282 3.5 5.2 0.00 0.00 0.00 89 1014.8
20260510053422 53 290 4.3 7.0 0.00 0.00 0.00 90 1014.7
20260510052918 53 304 2.6 5.2 0.00 0.00 0.00 89 1014.8
20260510052414 53 323 2.6 5.2 0.00 0.00 0.00 89 1015.1
20260510051910 53 299 4.3 7.0 0.00 0.00 0.00 89 1014.8
20260510051407 53 307 3.5 5.2 0.00 0.00 0.00 89 1014.8
20260510050904 53 327 4.3 5.2 0.00 0.00 0.00 89 1015.0
20260510050400 53 294 3.5 6.1 0.00 0.00 0.00 88 1014.8
20260510045857 53 314 2.6 3.5 0.00 0.00 0.00 89 1014.7
20260510045354 53 295 4.3 6.1 0.00 0.00 0.00 88 1015.0
20260510044851 53 319 4.3 6.1 0.00 0.00 0.00 88 1014.7
20260510044348 53 282 2.6 5.2 0.00 0.00 0.00 88 1014.7
20260510043845 53 310 1.7 6.1 0.00 0.00 0.00 87 1014.7
20260510043340 53 308 2.6 5.2 0.00 0.00 0.00 87 1014.6
20260510042839 53 297 4.3 6.1 0.00 0.00 0.00 87 1015.0
20260510042334 53 301 6.1 7.8 0.00 0.00 0.00 87 1014.7
20260510041831 53 311 1.7 5.2 0.00 0.00 0.00 86 1014.7
20260510041328 53 318 3.5 6.1 0.00 0.00 0.00 86 1014.8
20260510040825 53 307 2.6 6.1 0.00 0.00 0.00 86 1014.8
20260510040322 53 312 1.7 6.1 0.00 0.00 0.00 85 1014.8
20260510035817 53 292 3.5 6.1 0.00 0.00 0.00 86 1014.7
20260510035314 53 334 3.5 5.2 0.00 0.00 0.00 86 1014.7
20260510034809 53 312 3.5 6.1 0.00 0.00 0.00 85 1014.6
20260510034307 53 303 2.6 6.1 0.00 0.00 0.00 85 1015.0
20260510033803 53 306 2.6 5.2 0.00 0.00 0.00 85 1014.6
20260510033301 53 298 2.6 5.2 0.00 0.00 0.00 85 1014.6
20260510032757 53 294 3.5 6.1 0.00 0.00 0.00 84 1014.8
20260510032253 53 305 2.6 3.5 0.00 0.00 0.00 84 1014.6
20260510031749 53 310 3.5 7.0 0.00 0.00 0.00 84 1014.6
20260510031245 53 302 3.5 5.2 0.00 0.00 0.00 84 1014.6
20260510030739 53 292 2.6 6.1 0.00 0.00 0.00 83 1014.6
20260510030236 53 289 1.7 5.2 0.00 0.00 0.00 83 1014.7
20260510025733 53 305 5.2 6.1 0.00 0.00 0.00 83 1014.7
20260510025231 53 322 3.5 7.8 0.00 0.00 0.00 82 1014.7
20260510024728 54 294 3.5 5.2 0.00 0.00 0.00 82 1014.8
20260510024225 54 297 2.6 7.8 0.00 0.00 0.00 82 1014.8
20260510023720 53 330 3.5 5.2 0.00 0.00 0.00 81 1014.8
20260510023217 53 307 3.5 5.2 0.00 0.00 0.00 81 1014.6
20260510022714 54 303 2.6 5.2 0.00 0.00 0.00 80 1014.6
20260510022208 53 297 3.5 6.1 0.00 0.00 0.00 80 1014.5
20260510021703 54 303 3.5 5.2 0.00 0.00 0.00 81 1014.4
20260510021201 53 266 2.6 5.2 0.00 0.00 0.00 81 1014.4
20260510020655 53 297 1.7 5.2 0.00 0.00 0.00 81 1014.4
20260510020150 53 307 1.7 2.6 0.00 0.00 0.00 81 1014.2
20260510015647 53 305 1.7 3.5 0.00 0.00 0.00 80 1014.1
20260510015144 53 304 2.6 5.2 0.00 0.00 0.00 80 1014.1
20260510014639 53 306 1.7 3.5 0.00 0.00 0.00 80 1014.0
20260510014137 53 296 2.6 3.5 0.00 0.00 0.00 80 1013.7
20260510013636 53 306 1.7 2.6 0.00 0.00 0.00 80 1013.7
20260510013132 53 308 2.6 3.5 0.00 0.00 0.00 80 1013.5
20260510012632 53 315 2.6 3.5 0.00 0.00 0.00 79 1013.5
20260510012128 53 317 2.6 2.6 0.00 0.00 0.00 79 1013.5
20260510011623 53 318 2.6 5.2 0.00 0.00 0.00 80 1013.5
20260510011119 53 298 1.7 2.6 0.00 0.00 0.00 79 1013.3
20260510010615 53 333 1.7 1.7 0.00 0.00 0.00 78 1013.3
20260510010113 54 353 1.7 2.6 0.00 0.00 0.00 78 1013.2
20260510005608 54 314 1.7 1.7 0.00 0.00 0.00 78 1013.4
20260510005106 54 310 1.7 2.6 0.00 0.00 0.00 77 1013.2
20260510004604 54 349 1.7 2.6 0.00 0.00 0.00 76 1013.1
20260510004102 54 0 0.9 1.7 0.00 0.00 0.00 76 1013.1
20260510003558 55 345 1.7 1.7 0.00 0.00 0.00 75 1013.1
20260510003054 55 312 0.9 1.7 0.00 0.00 0.00 75 1013.2
20260510002554 55 320 1.7 1.7 0.00 0.00 0.00 74 1013.1
20260510002051 56 309 1.7 1.7 0.00 0.00 0.00 73 1013.2
20260510001548 56 324 1.7 2.6 0.00 0.00 0.00 72 1012.9
20260510001047 56 306 1.7 2.6 0.00 0.00 0.00 71 1013.0
20260510000542 57 301 1.7 5.2 0.00 0.00 0.00 70 1013.0
20260510000039 58 340 2.6 3.5 0.00 0.00 0.00 69 1012.7
20260509235535 58 303 3.5 5.2 0.00 0.00 0.00 69 1012.5
20260509235032 58 299 1.7 3.5 0.00 0.00 0.00 68 1012.4
20260509234528 59 286 1.7 2.6 0.00 0.00 0.00 67 1012.7
20260509234026 59 317 2.6 2.6 0.00 0.00 0.00 67 1012.5
20260509233523 59 279 4.3 6.1 0.00 0.00 0.00 66 1012.5
20260509233021 59 339 3.5 7.0 0.00 0.00 0.00 65 1012.5
20260509232517 60 302 3.5 7.0 0.00 0.00 0.00 65 1012.5
20260509232014 60 299 4.3 7.0 0.00 0.00 0.00 65 1012.2
20260509231510 60 296 7.0 7.8 0.00 0.00 0.00 64 1012.3
20260509231008 61 232 4.3 7.0 0.00 0.00 0.00 63 1012.2
20260509230505 61 306 7.0 7.8 0.00 0.00 0.00 63 1012.4
20260509230001 60 275 2.6 6.1 0.00 0.00 0.00 64 1012.2
20260509225457 61 297 3.5 11.3 0.00 0.00 0.00 63 1012.2
20260509224953 61 335 5.2 7.8 0.00 0.00 0.00 63 1012.2
20260509224449 61 305 4.3 6.1 0.00 0.00 0.00 65 1012.4
20260509223946 59 298 1.7 5.2 0.00 0.00 0.00 67 1012.5
20260509223442 59 274 4.3 6.1 0.00 0.00 0.00 67 1012.5
20260509222940 60 322 5.2 9.6 0.00 0.00 0.00 65 1012.4
20260509222435 60 320 7.0 8.7 0.00 0.00 0.00 66 1012.4
20260509221931 60 293 5.2 9.6 0.00 0.00 0.00 64 1012.5
20260509221428 59 328 6.1 7.8 0.00 0.00 0.00 65 1012.4
20260509220924 59 310 2.6 5.2 0.00 0.00 0.00 67 1012.5
20260509220420 60 302 5.2 8.7 0.00 0.00 0.00 65 1012.4
20260509215916 60 306 5.2 6.1 0.00 0.00 0.00 65 1012.5
20260509215412 60 310 4.3 6.1 0.00 0.00 0.00 65 1012.5
20260509214910 60 8 3.5 3.5 0.00 0.00 0.00 65 1012.7
20260509214406 60 336 4.3 9.6 0.00 0.00 0.00 64 1012.6
20260509213904 60 293 4.3 7.8 0.00 0.00 0.00 65 1012.5
20260509213359 60 316 6.1 8.7 0.00 0.00 0.00 63 1012.6
20260509212857 60 304 6.1 9.6 0.00 0.00 0.00 64 1012.5
20260509212354 60 256 5.2 12.2 0.00 0.00 0.00 62 1012.6
20260509211850 60 332 6.1 7.8 0.00 0.00 0.00 62 1012.4
20260509211346 60 332 5.2 9.6 0.00 0.00 0.00 62 1012.4
20260509210842 61 297 4.3 6.1 0.00 0.00 0.00 62 1012.4
20260509210340 60 343 3.5 7.0 0.00 0.00 0.00 62 1012.2
20260509205840 60 289 5.2 9.6 0.00 0.00 0.00 62 1012.3
20260509205334 60 303 4.3 7.0 0.00 0.00 0.00 62 1012.3
20260509204831 60 3 4.3 5.2 0.00 0.00 0.00 63 1012.3
20260509204328 61 334 6.1 7.8 0.00 0.00 0.00 61 1012.0
20260509203824 60 300 5.2 7.8 0.00 0.00 0.00 61 1012.0
20260509203321 60 258 4.3 7.0 0.00 0.00 0.00 64 1012.1
20260509202817 60 314 5.2 7.0 0.00 0.00 0.00 63 1011.9